Regional Weather Roundup
Issued by NWS

Home | Current Version | Previous Version | Text Only | Print | Product List | Glossary Off
Versions: 1 2 3 4 5 6 7 8 9 10 11 12 13 14 15 16 17 18 19 20 21 22 23 24 25 26 27 28 29 30 31 32 33 34 35 36 37 38 39 40 41 42 43 44 45 46 47 48 49 50

000
ASUS43 KLOT 302212
RWRIL

ILLINOIS REGIONAL WEATHER ROUNDUP
NATIONAL WEATHER SERVICE CHICAGO/ROMEOVILLE IL
500 PM CDT FRI SEP 30 2016

NOTE: "FAIR" INDICATES FEW OR NO CLOUDS BELOW 12,000 FEET WITH NO
SIGNIFICANT WEATHER AND/OR OBSTRUCTIONS TO VISIBILITY.

* THESE STATIONS ARE NOT UNDER NWS QUALITY CONTROL. THEY ALSO MAY NOT
  REPORT WEATHER SUCH AS PRECIPITATION OR FOG.

ILZ001-002-007-009-015-016-024-302300-
NORTHWEST ILLINOIS

CITY           SKY/WX    TMP DP  RH WIND       PRES   REMARKS
MOLINE         CLOUDY    66  57  72 N6        30.10S
STERLING*      LGT RAIN  64  58  80 N13G18    30.10S
SAVANNA*       CLOUDY    65  58  79 N8        30.11F
$$

ILZ003-004-008-010-011-017-018-302300-
NORTH CENTRAL ILLINOIS

CITY           SKY/WX    TMP DP  RH WIND       PRES   REMARKS
ROCKFORD       DRIZZLE   64  58  80 N12       30.13R
FREEPORT*      CLOUDY    60  58  91 N8        30.14S
ROCHELLE*      CLOUDY    64  58  83 NE14      30.10S
DE KALB*       CLOUDY    64  59  85 NE12G18   30.10R
$$

ILZ005-006-012>014-019>023-302300-
NORTHEAST ILLINOIS

CITY           SKY/WX    TMP DP  RH WIND       PRES   REMARKS
CHICAGO-OHARE  CLOUDY    63  59  87 NE15      30.08S
CHICAGO-MIDWAY CLOUDY    65  58  78 NE16      30.07S
AURORA         CLOUDY    67  58  72 NE16      30.08S
LANSING*       CLOUDY    64  62  94 N3        30.05S
JOLIET*        CLOUDY    65  61  86 NE17      30.06F
WAUKEGAN       CLOUDY    63  59  87 NE8       30.10S
DUPAGE AIRPORT CLOUDY    65  58  78 NE15      30.08S
KANKAKEE*      CLOUDY    64  62  93 N7        30.04S
WHEELING       CLOUDY    63  58  83 NE12      30.11R
MORRIS*        CLOUDY    65  59  81 NE5       30.05S
ROMEOVILLE*    CLOUDY    63  61  94 NE18      30.07S
NORTHERLY ISL    N/A     62  58  86 NE15        N/A
$$

LMZ740>746-302300-
SOUTHERN LAKE MICHIGAN

STATION/POSITION SKY/WX   TEMP    WIND        PRES    VSBY  WAVE
                          AIR SEA DIR/SP/G                  HT/PER
                          (F)     (DEG/KT/KT) (MB)    (MI)  (FT/S)
SOUTHERN BUOY              64 68   60/ 19/ 21 1018.4F         4/ 5
WILMETTE HARBOR            62 58   80/ 14/ 17   N/A           5/ 6
HARRISON CRIB              64      40/ 21/ 23   N/A
BURNHAM HARBOR             62      30/ 12/ 14   N/A
CALUMET HARBOR             63      10/ 14/ 21 1017.7R
BURNS HARBOR               63      40/ 20/ 22 1017.6S
MICHIGAN CITY              63      30/ 21/ 23   N/A
MICHIGAN CITY 6N           62 64   50/ 16/ 19   N/A           5/ 6
ST. JOSEPH                 55 51   40/  8/ 10 1018.6          4/ 5
$$

ILZ025>027-034>036-040-047-049-050-058-095>099-302300-
WEST-CENTRAL ILLINOIS

CITY           SKY/WX    TMP DP  RH WIND       PRES   REMARKS
QUINCY         CLOUDY    67  57  70 N12       30.08F
GALESBURG*     CLOUDY    64  58  79 N13       30.10S
MACOMB*        CLOUDY    66  57  73 N13       30.10S
JACKSONVILLE*  CLOUDY    67  59  76 N8        30.05F
PITTSFIELD*    CLOUDY    65  59  80 NW9       30.09R
$$

ILZ028>032-037-038-041>044-048-051>054-059>061-302300-
CENTRAL ILLINOIS

CITY           SKY/WX    TMP DP  RH WIND       PRES   REMARKS
PONTIAC        CLOUDY    66  62  85 N9        30.05F
BLOOMINGTON    CLOUDY    64  60  87 NE13      30.04S
DECATUR        CLOUDY    66  60  81 N10       30.02S
PEORIA         LGT RAIN  65  63  93 N5        30.05F
LACON*         CLOUDY    67  58  73 NE8       30.05S
LINCOLN*       CLOUDY    67  62  84 N9        30.03S
SPRINGFIELD    CLOUDY    67  61  81 NW12      30.03F
TAYLORVILLE    RAIN      63  61  95 NW10      30.02S
$$

ILZ033-039-045-046-055>057-062-063-302300-
EAST-CENTRAL ILLINOIS

CITY           SKY/WX    TMP DP  RH WIND       PRES   REMARKS
CHAMPAIGN      CLOUDY    64  61  90 N5        30.01R
RANTOUL*       CLOUDY    68  62  79 N14       30.01R
MATTOON        LGT RAIN  65  61  87 N12       29.99S
PARIS*         CLOUDY    65  61  85 CALM      30.00R
$$

ILZ079-100>102-302300-
SOUTHWEST ILLINOIS

CITY           SKY/WX    TMP DP  RH WIND       PRES   REMARKS
ALTON          LGT RAIN  66  59  77 NW12      30.04S
BELLEVILLE     MOSUNNY   68  59  72 NW13      30.01F
CAHOKIA*       CLOUDY    68  58  70 NW13      30.03F
SPARTA*        CLOUDY    65  60  85 CALM      30.03F
$$

ILZ064>066-069>071-074>076-080>082-084>086-088>090-092>094-302300-
SOUTH-CENTRAL ILLINOIS

CITY           SKY/WX    TMP DP  RH WIND       PRES   REMARKS
CARBONDALE     RAIN      64  62  93 NW7       30.01S FOG
CAIRO*         CLOUDY    64  61  90 W5        30.02F
EFFINGHAM*     CLOUDY    67  61  81 NW6       30.00S
MARION         PTSUNNY   68  59  73 W12       30.01F
MT. VERNON     MOSUNNY   68  57  68 W3        30.00F
CENTRALIA*     PTSUNNY   68  62  80 N7        30.00S
SALEM*         MOSUNNY   68  60  74 NW8       30.00F
METROPOLIS*    PTSUNNY   65  61  88 W5        30.02S
$$

ILZ067-068-072-073-078-083-087-091-302300-
SOUTHEAST ILLINOIS

CITY           SKY/WX    TMP DP  RH WIND       PRES   REMARKS
LAWRENCEVILLE  LGT RAIN  67  57  70 N3        29.98R
FLORA*         CLOUDY    69  60  72 N9G21     29.98S
FAIRFIELD*     CLOUDY    67  61  82 CALM      29.97F
HARRISBURG*    CLOUDY    65  60  85 S5        30.00S
ROBINSON*      CLOUDY    60  58  94 NW3       30.00R
CARMI*         CLOUDY    64  62  94 W5        29.99S
$$

ABBREVIATIONS USED IN REMARKS
   TC - TEMPERATURE IN CELSIUS
  WCI - WIND CHILL INDEX
   HX - HEAT INDEX
  VSB - VISIBILITY
$$





USA.gov is the U.S. government's official web portal to all federal, state and local government web resources and services.